{"data":{"norad_id":40748,"epoch":"2026-05-23T14:58:03.951840Z","epoch_age_seconds":200764,"freshness":"STALE","line1":"1 40748U 15037A   26143.62365685 -.00000076  00000+0  00000+0 0  9998","line2":"2 40748  54.8929 302.8909 0007595 263.8817  96.0113  1.86231735 73662","mean_motion":1.86231735,"eccentricity":0.0007595,"inclination_deg":54.8929,"raan_deg":302.8909,"arg_perigee_deg":263.8817,"mean_anomaly_deg":96.0113,"bstar":0,"rev_number":7366,"period_min":773.23019086946,"perigee_km":21506.783444564,"apogee_km":21549.17283346,"semimajor_km":27906.115139012,"source":"CELESTRAK","updated_at":"2026-05-25T13:38:24.213794Z"}}